Location: Sternwarte Hubelmatt
(47.0367°N, 8.3053°E)
Time: 14:03:38
(UTC+01:00)

ISS - Visible Passes

Search period start: 16 January 2026 00:00
Search period end: 26 January 2026 00:00
Orbit: 413 x 424 km, 51.6° (Epoch: 16 January)

Date Brightness Start Highest point End Pass type
(mag) Time Alt. Az. Time Alt. Az. Time Alt. Az.
16 Jan -3.3 17:49:38 10° SW 17:52:52 49° SSE 17:55:51 12° ENE visible
16 Jan -2.3 19:26:28 10° W 19:28:48 35° WNW 19:28:48 35° WNW visible
17 Jan -3.5 18:38:34 10° W 18:41:52 57° NNW 18:43:02 35° NE visible
17 Jan -0.2 20:15:55 10° WNW 20:15:58 10° WNW 20:15:58 10° WNW visible
18 Jan -3.7 17:50:43 10° WSW 17:54:03 78° NNW 17:57:12 11° ENE visible
18 Jan -2.1 19:28:00 10° WNW 19:30:09 29° NW 19:30:09 29° NW visible
19 Jan -2.9 18:40:04 10° W 18:43:14 39° N 18:44:18 29° NE visible
20 Jan -3.1 17:52:05 10° W 17:55:19 46° NNW 17:58:26 11° ENE visible
20 Jan -2.0 19:29:23 10° WNW 19:31:23 27° NW 19:31:23 27° NW visible
21 Jan -2.8 18:41:28 10° WNW 18:44:35 35° N 18:45:31 29° NE visible
21 Jan -0.3 20:18:23 10° WNW 20:18:28 10° WNW 20:18:28 10° WNW visible
22 Jan -2.8 17:53:29 10° WNW 17:56:37 36° N 17:59:39 11° ENE visible
22 Jan -2.2 19:30:32 10° WNW 19:32:36 31° NW 19:32:36 31° NW visible
23 Jan -3.1 18:42:39 10° WNW 18:45:51 41° N 18:46:46 33° NE visible
23 Jan -0.4 20:19:27 10° WNW 20:19:43 12° WNW 20:19:43 12° WNW visible
24 Jan -2.9 17:54:43 10° WNW 17:57:51 37° N 18:00:59 10° ENE visible
24 Jan -2.7 19:31:33 10° WNW 19:33:56 44° WNW 19:33:56 44° WNW visible
25 Jan -3.7 18:43:38 10° WNW 18:46:58 63° NNE 18:48:13 34° E visible
25 Jan -0.4 20:20:41 10° W 20:21:11 13° W 20:21:11 13° W visible
